Location: Biltmore Gardens
(41.6070°N, 83.4666°W)
Time: 14:15:24
(UTC+00:00)

Cosmos 1833 Rocket - Pass Details

Date: 14 July 2020
Orbit: 832 x 840 km, 71.0° (Epoch: 04 August)

Event Time Altitude Azimuth Distance (km) Brightness Sun altitude
Exits shadow 07:31:46 47° 203° (SSW) 1,093 2.8 -21.7°
Maximum altitude 07:33:29 90° 262° (W) 839 2.6 -21.5°
Drops below altitude 10° 07:39:07 10° 24° (NNE) 2,451 6.3 -21.0°
Sets 07:41:34 0° 25° (NNE) 3,390 7.4 -20.8°
